Location: Gollag?dem
(17.0207°N, 80.7261°E)
Time: 17:15:59
(UTC+00:00)

Cosmos 2237 Rocket - Pass Details

Date: 03 August 2024
Orbit: 836 x 848 km, 71.0° (Epoch: 12 September)

Event Time Altitude Azimuth Distance (km) Brightness Sun altitude
Exits shadow 22:53:38 27° 283° (WNW) 1,552 3.1 -19.5°
Maximum altitude 22:54:02 28° 290° (WNW) 1,544 3.2 -19.4°
Drops below altitude 10° 22:58:46 10° 348° (NNW) 2,453 4.8 -18.4°
Sets 23:01:34 0° 360° (N) 3,386 5.7 -17.8°
